Date String (YYYY-MM-DD hh:mm:ss) UTC,Instrument flags,Ambient pressure (hPa),Sample flow (lpm),Bypass flow (lpm),Sample temperature (°C),Ambient temperature (°C),ASC tube jacket temperature (°C),LED temperature (°C),Box temperature (°C),Sample RH (%),Span deviation,Mass concentration (μg/m³),Mass concentration (μg/m³),Mass concentration (μg/m³)
DateTimeUTC,F1_M11,P_M11,Q1_M11,Q2_M11,T1_M11,T2_M11,T3_M11,T4_M11,T5_M11,U1_M11,ZSPAN_M11,X0_M11,X2_M11,X1_M11
2022-09-06 09:00:00,,0828.8,4.99,0.00,29.8,28.3,00.0,38.6,31.6,15.5,0000.0,0011.57,0006.80,0005.90
2022-09-06 09:01:00,,0828.8,5.01,0.00,29.8,28.4,00.0,38.6,31.6,15.7,0000.0,0012.09,0006.82,0005.91
2022-09-06 09:02:00,,0828.9,5.00,0.00,29.8,28.5,00.0,38.6,31.7,15.6,0000.0,0012.47,0006.78,0005.90
2022-09-06 09:03:00,,0828.9,4.99,0.00,29.8,28.6,00.0,38.6,31.7,15.7,0000.0,0012.45,0006.78,0005.91
2022-09-06 09:04:00,,0828.9,5.01,0.00,29.9,28.7,00.0,38.6,31.7,15.8,0000.0,0012.69,0006.85,0005.92
2022-09-06 09:05:00,,0828.9,5.00,0.00,29.9,28.8,00.0,38.6,31.7,15.7,0000.0,0013.27,0006.91,0005.95
2022-09-06 09:06:00,,0829.0,4.99,0.00,29.9,28.8,00.0,38.6,31.8,15.7,0000.0,0013.38,0006.97,0005.99
2022-09-06 09:07:00,,0829.0,5.02,0.00,29.9,28.9,00.0,38.7,31.9,15.7,0000.0,0013.30,0007.00,0006.03
2022-09-06 09:08:00,,0829.0,4.99,0.00,30.0,28.9,00.0,38.7,31.9,15.7,0000.0,0012.79,0007.05,0006.07
2022-09-06 09:09:00,,0829.0,5.01,0.00,30.0,29.0,00.0,38.7,31.9,15.9,0000.0,0012.75,0007.09,0006.11
2022-09-06 09:10:00,,0829.0,4.99,0.00,30.0,29.0,00.0,38.7,31.9,15.9,0000.0,0013.14,0007.17,0006.16
2022-09-06 09:11:00,,0829.0,5.01,0.00,30.1,29.1,00.0,38.7,32.0,16.0,0000.0,0013.79,0007.30,0006.24
2022-09-06 09:12:00,,0829.0,4.98,0.00,30.1,29.1,00.0,38.8,32.0,16.1,0000.0,0013.45,0007.40,0006.33
2022-09-06 09:13:00,,0829.0,5.01,0.00,30.1,29.2,00.0,38.8,32.0,16.1,0000.0,0013.85,0007.49,0006.41
2022-09-06 09:14:00,,0829.0,4.99,0.00,30.2,29.0,00.0,38.8,32.0,16.1,0000.0,0014.14,0007.58,0006.50
2022-09-06 09:15:00,,0829.0,5.01,0.00,30.1,27.7,00.0,38.8,31.9,16.1,0000.0,0014.25,0007.62,0006.57
2022-09-06 09:16:00,,0829.0,4.99,0.00,30.1,27.0,00.0,38.8,31.9,16.1,0000.0,0014.03,0007.69,0006.64
2022-09-06 09:17:00,,0829.0,5.00,0.00,30.0,27.1,00.0,38.7,31.7,16.1,0000.0,0014.35,0007.79,0006.70
2022-09-06 09:18:00,,0829.0,5.00,0.00,30.0,27.4,00.0,38.7,31.6,16.2,0000.0,0015.97,0007.93,0006.77
2022-09-06 09:19:00,,0829.0,5.01,0.00,29.9,27.7,00.0,38.7,31.6,16.2,0000.0,0016.35,0007.99,0006.82
2022-09-06 09:20:00,,0829.0,5.00,0.00,29.9,28.0,00.0,38.7,31.7,16.3,0000.0,0016.86,0008.04,0006.86
2022-09-06 09:21:00,,0829.0,5.00,0.00,29.9,28.2,00.0,38.7,31.7,16.3,0000.0,0016.88,0008.04,0006.90
2022-09-06 09:22:00,,0829.1,5.00,0.00,29.9,28.4,00.0,38.7,31.7,16.2,0000.0,0017.07,0008.07,0006.93
2022-09-06 09:23:00,,0829.1,5.01,0.00,29.9,28.5,00.0,38.7,31.8,16.2,0000.0,0017.53,0008.08,0006.92
2022-09-06 09:24:00,,0829.1,5.01,0.00,30.0,28.6,00.0,38.7,31.8,16.2,0000.0,0017.11,0008.13,0006.92
2022-09-06 09:25:00,,0829.1,4.98,0.00,30.0,28.7,00.0,38.7,31.8,16.2,0000.0,0017.08,0008.15,0006.92
2022-09-06 09:26:00,,0829.1,5.01,0.00,30.0,28.8,00.0,38.7,31.9,16.2,0000.0,0017.81,0008.15,0006.91
2022-09-06 09:27:00,,0829.1,4.99,0.00,30.0,28.9,00.0,38.8,31.9,16.1,0000.0,0018.36,0008.14,0006.91
2022-09-06 09:28:00,,0829.2,5.01,0.00,30.0,29.0,00.0,38.8,31.9,16.1,0000.0,0018.36,0008.14,0006.91
2022-09-06 09:29:00,,0829.2,5.01,0.00,30.1,29.0,00.0,38.8,32.0,16.1,0000.0,0017.20,0008.11,0006.91
2022-09-06 09:30:00,,0829.2,4.99,0.00,30.1,29.1,00.0,38.8,32.0,16.1,0000.0,0017.31,0008.10,0006.91
2022-09-06 09:31:00,,0829.2,5.00,0.00,30.1,29.1,00.0,38.8,32.0,16.1,0000.0,0016.99,0008.10,0006.93
2022-09-06 09:32:00,,0829.2,5.00,0.00,30.2,29.2,00.0,38.9,32.0,16.0,0000.0,0017.33,0008.13,0006.94
2022-09-06 09:33:00,,0829.2,5.01,0.00,30.2,29.2,00.0,38.9,32.1,16.0,0000.0,0016.85,0008.07,0006.91
2022-09-06 09:34:00,,0829.2,4.98,0.00,30.2,28.8,00.0,38.9,32.1,16.1,0000.0,0016.78,0008.03,0006.91
2022-09-06 09:35:00,,0829.2,5.02,0.00,30.2,27.4,00.0,38.9,31.9,16.1,0000.0,0016.72,0008.04,0006.93
2022-09-06 09:36:00,,0829.2,4.99,0.00,30.1,27.1,00.0,38.8,31.9,16.1,0000.0,0016.62,0008.05,0006.95
2022-09-06 09:37:00,,0829.2,5.00,0.00,30.1,27.2,00.0,38.8,31.7,16.2,0000.0,0015.81,0008.05,0006.97
2022-09-06 09:38:00,,0829.2,5.00,0.00,30.0,27.5,00.0,38.8,31.7,16.4,0000.0,0015.26,0008.07,0006.99
2022-09-06 09:39:00,,0829.3,5.00,0.00,30.0,27.8,00.0,38.8,31.7,16.5,0000.0,0015.30,0008.09,0007.00
2022-09-06 09:40:00,,0829.2,4.99,0.00,30.0,28.1,00.0,38.7,31.7,16.6,0000.0,0015.44,0008.12,0007.02
2022-09-06 09:41:00,,0829.3,5.00,0.00,30.0,28.3,00.0,38.7,31.8,16.6,0000.0,0015.42,0008.15,0007.04
2022-09-06 09:42:00,,0829.3,5.01,0.00,30.0,28.4,00.0,38.8,31.8,16.6,0000.0,0015.53,0008.23,0007.07
2022-09-06 09:43:00,,0829.2,5.00,0.00,30.0,28.6,00.0,38.8,31.8,16.5,0000.0,0015.54,0008.23,0007.10
2022-09-06 09:44:00,,0829.3,4.98,0.00,30.0,28.7,00.0,38.8,31.9,16.6,0000.0,0016.52,0008.30,0007.14
2022-09-06 09:45:00,,0829.2,5.01,0.00,30.0,28.8,00.0,38.8,31.9,16.6,0000.0,0017.44,0008.37,0007.19
2022-09-06 09:46:00,,0829.3,4.99,0.00,30.1,28.9,00.0,38.8,31.9,16.6,0000.0,0017.47,0008.39,0007.23
2022-09-06 09:47:00,,0829.3,5.01,0.00,30.1,29.0,00.0,38.8,31.9,16.6,0000.0,0017.57,0008.44,0007.25
2022-09-06 09:48:00,,0829.3,4.98,0.00,30.1,29.0,00.0,38.8,32.0,16.6,0000.0,0017.68,0008.51,0007.28
2022-09-06 09:49:00,,0829.2,5.01,0.00,30.1,29.1,00.0,38.8,32.0,16.5,0000.0,0017.60,0008.53,0007.30
2022-09-06 09:50:00,,0829.2,5.00,0.00,30.2,29.1,00.0,38.9,32.0,16.5,0000.0,0017.43,0008.51,0007.31
2022-09-06 09:51:00,,0829.2,5.00,0.00,30.2,29.2,00.0,38.9,32.0,16.5,0000.0,0017.20,0008.52,0007.33
2022-09-06 09:52:00,,0829.2,5.01,0.00,30.2,29.2,00.0,38.9,32.1,16.4,0000.0,0016.87,0008.47,0007.35
2022-09-06 09:53:00,,0829.2,4.99,0.00,30.2,28.3,00.0,38.9,32.0,16.4,0000.0,0016.90,0008.49,0007.35
2022-09-06 09:54:00,,0829.2,4.99,0.00,30.2,27.1,00.0,38.9,31.9,16.4,0000.0,0016.67,0008.57,0007.36
2022-09-06 09:55:00,,0829.2,5.00,0.00,30.1,27.1,00.0,38.8,31.9,16.4,0000.0,0015.70,0008.58,0007.37
2022-09-06 09:56:00,,0829.2,4.99,0.00,30.0,27.3,00.0,38.8,31.8,16.5,0000.0,0014.93,0008.56,0007.37
2022-09-06 09:57:00,,0829.2,5.00,0.00,30.0,27.6,00.0,38.8,31.7,16.5,0000.0,0015.04,0008.52,0007.35
2022-09-06 09:58:00,,0829.2,5.00,0.00,30.0,27.9,00.0,38.8,31.7,16.4,0000.0,0015.41,0008.51,0007.34
2022-09-06 09:59:00,,0829.3,5.00,0.00,30.0,28.1,00.0,38.8,31.7,16.4,0000.0,0015.51,0008.54,0007.32
